OTB-3-GAZELLE

Last updated on Mon Sep 21 2026 00:02:54 GMT+0000 (Coordinated Universal Time)

1 54023U 22127A 26263.42324101 .00000069 00000+0 33782-4 0 9995 2 54023 98.4043 253.7209 0011869 261.0600 98.9247 14.42702331208097
UTC large
Height (km)
Speed (km/s)
/
Latitude / Longitude
Inclination (degrees)
Orbital Period (minutes)
Azimuth
Elevation
Range (km)
Doppler Factor

Next 0 passes for location: London (51.5072 / 0.1276)

No passes found over London.
OTB-3-GAZELLE